20050416,000029,118662,33.183667,-117.460486,15.543,33.460,1.141,2.254
20050416,000058,118691,33.182195,-117.460070,15.502,33.494,1.135,2.225
20050416,000129,118722,33.180613,-117.459655,15.444,33.537,0.991,1.863
20050416,000159,118752,33.179090,-117.459228,15.336,33.607,1.004,1.894
20050416,000229,118782,33.177570,-117.458836,15.266,33.639,0.906,1.660
20050416,000259,118812,33.176060,-117.458400,15.211,33.653,0.938,1.720
20050416,000328,118841,33.174543,-117.457995,15.174,33.646,0.809,1.428
20050416,000359,118872,33.173032,-117.457591,15.136,33.636,0.815,1.452
20050416,000429,118902,33.171517,-117.457173,15.090,33.633,0.718,1.256
20050416,000459,118932,33.169983,-117.456788,15.064,33.615,0.725,1.278
20050416,000528,118961,33.168467,-117.456378,15.032,33.602,0.667,1.158
20050416,000559,118992,33.166958,-117.455943,14.989,33.603,0.667,1.160
20050416,000629,119022,33.165430,-117.455553,14.955,33.597,0.680,1.190
20050416,000659,119052,33.163853,-117.455115,14.943,33.574,0.712,1.252
20050416,000729,119082,33.162365,-117.454725,14.933,33.551,0.725,1.278
20050416,000759,119112,33.160827,-117.454313,14.914,33.537,0.705,1.247
20050416,000829,119142,33.159282,-117.453905,14.908,33.516,0.712,1.278
20050416,000859,119172,33.157750,-117.453505,14.883,33.514,0.654,1.167
20050416,000930,119203,33.156170,-117.453081,14.831,33.533,0.622,1.109
20050416,000959,119232,33.154675,-117.452701,14.797,33.541,0.654,1.179
20050416,001029,119262,33.153157,-117.452293,14.793,33.518,0.648,1.167
20050416,001059,119292,33.151623,-117.451895,14.761,33.524,0.616,1.104
20050416,001129,119322,33.150088,-117.451488,14.758,33.503,0.591,1.055
20050416,001159,119352,33.148508,-117.451073,14.757,33.481,0.654,1.197
20050416,001230,119383,33.146962,-117.450668,14.747,33.469,0.597,1.080
20050416,001300,119413,33.145382,-117.450245,14.745,33.455,0.578,1.048
20050416,001330,119443,33.143902,-117.449850,14.730,33.452,0.559,1.012
20050416,001400,119473,33.142368,-117.449436,14.719,33.448,0.565,1.027
20050416,001430,119503,33.140833,-117.449038,14.716,33.440,0.591,1.085
20050416,001500,119533,33.139297,-117.448615,14.701,33.441,0.571,1.047
20050416,001530,119564,33.137757,-117.448196,14.696,33.437,0.546,0.995
20050416,001600,119593,33.136222,-117.447778,14.699,33.424,0.571,1.049
20050416,001629,119622,33.134682,-117.447366,14.768,33.357,0.661,1.245
20050416,001700,119653,33.133097,-117.446945,14.867,33.266,0.635,1.187
20050416,001730,119683,33.131617,-117.446540,14.943,33.209,0.661,1.247
20050416,001800,119713,33.130033,-117.446121,15.077,33.126,0.654,1.234
20050416,001830,119743,33.128490,-117.445701,15.203,33.066,0.667,1.261
20050416,001900,119773,33.127012,-117.445313,15.260,33.081,0.654,1.228
20050416,001930,119803,33.125483,-117.444886,15.258,33.141,0.591,1.085
20050416,002000,119833,33.123913,-117.444451,15.216,33.239,0.559,1.016
20050416,002030,119863,33.122430,-117.444050,15.187,33.310,0.559,1.014
20050416,002100,119893,33.120895,-117.443635,15.117,33.397,0.565,1.029
20050416,002130,119923,33.119308,-117.443196,15.127,33.403,0.571,1.044
20050416,002200,119953,33.117778,-117.442783,15.164,33.376,0.546,0.990
20050416,002230,119983,33.116305,-117.442386,15.187,33.356,0.591,1.093
20050416,002300,120013,33.114732,-117.442000,15.226,33.328,0.508,0.919
20050416,002329,120042,33.113252,-117.441638,15.232,33.338,0.489,0.880
20050416,002400,120073,33.111723,-117.441260,15.219,33.361,0.502,0.905
20050416,002431,120104,33.110145,-117.440868,15.176,33.411,0.477,0.851
20050416,002500,120133,33.108678,-117.440496,15.150,33.432,0.470,0.840
20050416,002529,120162,33.107137,-117.440131,15.154,33.426,0.483,0.865
20050416,002600,120193,33.105613,-117.439748,15.149,33.424,0.477,0.849
20050416,002630,120223,33.104028,-117.439386,15.146,33.419,0.483,0.854
20050416,002700,120253,33.102562,-117.439033,15.150,33.409,0.489,0.847
20050416,002730,120283,33.101018,-117.438685,15.162,33.393,0.502,0.839
20050416,002800,120313,33.099500,-117.438315,15.172,33.380,0.489,0.796
20050416,002830,120343,33.097912,-117.437953,15.178,33.373,0.502,0.813
20050416,002900,120373,33.096385,-117.437595,15.188,33.364,0.464,0.744
20050416,002930,120403,33.094908,-117.437245,15.195,33.360,0.489,0.788
20050416,003000,120433,33.093373,-117.436898,15.186,33.371,0.477,0.761
20050416,003030,120463,33.091800,-117.436518,15.172,33.388,0.495,0.788
20050416,003100,120493,33.090280,-117.436156,15.146,33.409,0.483,0.764
20050416,003130,120523,33.088812,-117.435796,15.121,33.427,0.502,0.795
20050416,003200,120553,33.087293,-117.435440,15.103,33.435,0.477,0.748
20050416,003230,120583,33.085768,-117.435085,15.102,33.430,0.527,0.837
20050416,003300,120613,33.084253,-117.434726,15.132,33.395,0.521,0.829
20050416,003330,120643,33.082725,-117.434373,15.165,33.360,0.571,0.927
20050416,003400,120673,33.081203,-117.434016,15.241,33.296,0.546,0.879
20050416,003430,120703,33.079683,-117.433653,15.274,33.276,0.559,0.913
20050416,003500,120733,33.078128,-117.433278,15.324,33.254,0.578,0.960
20050416,003530,120763,33.076658,-117.432938,15.349,33.256,0.584,0.978
20050416,003600,120793,33.075138,-117.432585,15.355,33.277,0.565,0.951
20050416,003630,120823,33.073610,-117.432245,15.350,33.303,0.584,1.000
20050416,003700,120853,33.072083,-117.431906,15.332,33.341,0.571,0.980
20050416,003730,120883,33.070557,-117.431563,15.333,33.356,0.571,0.988
20050416,003800,120914,33.068987,-117.431203,15.255,33.426,0.565,0.983
20050416,003830,120943,33.067463,-117.430861,15.211,33.462,0.527,0.915
20050416,003900,120973,33.065993,-117.430526,15.156,33.500,0.571,1.011
20050416,003930,121003,33.064468,-117.430186,15.123,33.513,0.571,1.012
20050416,004000,121033,33.062937,-117.429851,15.108,33.505,0.559,0.988
20050416,004030,121063,33.061417,-117.429528,15.090,33.498,0.571,1.013
20050416,004100,121093,33.059910,-117.429181,15.075,33.488,0.533,0.937
20050416,004130,121123,33.058322,-117.428813,15.039,33.498,0.546,0.963
20050416,004200,121153,33.056817,-117.428480,14.995,33.512,0.514,0.901
20050416,004230,121183,33.055342,-117.428148,15.005,33.483,0.527,0.923
20050416,004300,121213,33.053815,-117.427805,14.992,33.472,0.559,0.990
20050416,004330,121243,33.052295,-117.427473,15.009,33.439,0.546,0.962
20050416,004400,121273,33.050775,-117.427133,15.031,33.405,0.521,0.909
20050416,004430,121303,33.049250,-117.426803,15.064,33.368,0.508,0.883
20050416,004500,121333,33.047727,-117.426456,15.060,33.370,0.521,0.907
20050416,004531,121364,33.046153,-117.426116,15.035,33.391,0.508,0.882
20050416,004600,121393,33.044685,-117.425790,15.014,33.409,0.533,0.930
20050416,004630,121423,33.043162,-117.425440,15.002,33.419,0.521,0.903
20050416,004700,121453,33.041637,-117.425085,14.949,33.456,0.508,0.875
20050416,004730,121483,33.040107,-117.424731,14.943,33.450,0.552,0.962
20050416,004800,121513,33.038593,-117.424396,14.921,33.457,0.533,0.924
20050416,004830,121543,33.037078,-117.424036,14.923,33.443,0.514,0.883
20050416,004900,121573,33.035560,-117.423681,14.948,33.408,0.565,0.984
20050416,004930,121603,33.034043,-117.423333,14.994,33.358,0.635,1.128
20050416,005000,121633,33.032523,-117.422981,15.099,33.268,0.610,1.071
20050416,005030,121663,33.031013,-117.422621,15.208,33.187,0.597,1.043
20050416,005100,121693,33.029495,-117.422270,15.268,33.167,0.622,1.094
20050416,005130,121723,33.027928,-117.421898,15.333,33.155,0.635,1.119
20050416,005200,121753,33.026413,-117.421520,15.404,33.140,0.622,1.092
20050416,005230,121783,33.024937,-117.421185,15.489,33.114,0.661,1.168
20050416,005300,121813,33.023367,-117.420796,15.530,33.129,0.610,1.061
20050416,005330,121843,33.021892,-117.420435,15.560,33.160,0.616,1.070
20050416,005400,121873,33.020315,-117.420030,15.565,33.208,0.578,0.991
20050416,005431,121904,33.018783,-117.419660,15.596,33.228,0.578,0.990
20050416,005500,121933,33.017258,-117.419256,15.645,33.227,0.591,1.015
20050416,005530,121963,33.015768,-117.418871,15.712,33.210,0.578,0.988
20050416,005600,121993,33.014178,-117.418463,15.770,33.202,0.571,0.972
20050416,005630,122023,33.012645,-117.418063,15.838,33.190,0.584,0.995
20050416,005700,122053,33.011157,-117.417678,15.870,33.212,0.565,0.955
20050416,005730,122083,33.009625,-117.417286,15.873,33.255,0.552,0.928
20050416,005800,122113,33.008102,-117.416876,15.874,33.294,0.578,0.977
20050416,005830,122143,33.006520,-117.416450,15.874,33.327,0.546,0.912
20050416,005900,122173,33.005002,-117.416050,15.835,33.382,0.565,0.947
20050416,005930,122203,33.003537,-117.415645,15.781,33.440,0.514,0.850
20050416,005959,122232,33.002010,-117.415243,15.715,33.500,0.533,0.884
20050416,010030,122264,33.000542,-117.414843,15.640,33.557,0.508,0.834
20050416,010100,122293,32.999018,-117.414438,15.604,33.570,0.514,0.846
20050416,010130,122323,32.997501,-117.414032,15.587,33.557,0.571,0.952
20050416,010200,122353,32.995940,-117.413605,15.596,33.520,0.565,0.938
20050416,010230,122383,32.994460,-117.413242,15.608,33.483,0.565,0.937
20050416,010300,122413,32.992925,-117.413372,15.581,33.482,0.552,0.915
20050416,010330,122443,32.991468,-117.413710,15.535,33.506,0.565,0.941
20050416,010400,122473,32.990406,-117.414747,15.484,33.533,0.552,0.916
20050416,010430,122503,32.989858,-117.416220,15.430,33.559,0.546,0.903
20050416,010500,122533,32.989765,-117.417746,15.402,33.558,0.603,1.012
20050416,010531,122564,32.989871,-117.419425,15.370,33.558,0.610,1.021
20050416,010600,122593,32.989936,-117.421078,15.356,33.537,0.616,1.029
20050416,010630,122623,32.989691,-117.422623,15.343,33.521,0.578,0.959
20050416,010701,122654,32.988908,-117.424056,15.348,33.490,0.584,0.968
20050416,010731,122684,32.988120,-117.425485,15.329,33.484,0.571,0.940
20050416,010800,122713,32.987340,-117.426940,15.310,33.478,0.578,0.950
20050416,010830,122743,32.986551,-117.428386,15.295,33.472,0.597,0.985
20050416,010900,122773,32.985780,-117.429796,15.282,33.471,0.629,1.046
20050416,010930,122803,32.984978,-117.431256,15.269,33.461,0.610,1.006
20050416,011000,122833,32.984183,-117.432701,15.248,33.462,0.571,0.930
20050416,011030,122863,32.983246,-117.434115,15.248,33.449,0.616,1.013
20050416,011100,122893,32.982343,-117.435480,15.234,33.447,0.591,0.963
20050416,011131,122924,32.981400,-117.436795,15.166,33.491,0.642,1.061
20050416,011201,122954,32.980310,-117.437963,15.130,33.510,0.616,1.007
20050416,011230,122983,32.979205,-117.439160,15.145,33.478,0.642,1.056
20050416,011300,123013,32.978126,-117.440363,15.228,33.388,0.654,1.079
20050416,011331,123044,32.977038,-117.441563,15.275,33.335,0.674,1.114
20050416,011401,123074,32.975921,-117.442818,15.330,33.287,0.597,0.965
20050416,011431,123104,32.974866,-117.443976,15.350,33.283,0.578,0.926
20050416,011501,123134,32.973641,-117.444940,15.362,33.292,0.571,0.912
20050416,011531,123164,32.972280,-117.445798,15.363,33.312,0.635,1.027
20050416,011601,123194,32.971003,-117.446598,15.343,33.343,0.591,0.943
20050416,011631,123224,32.969680,-117.447436,15.328,33.370,0.616,0.985
20050416,011701,123254,32.968265,-117.448173,15.304,33.396,0.661,1.070
20050416,011731,123284,32.966901,-117.448806,15.276,33.420,0.629,1.005
20050416,011801,123314,32.965506,-117.449470,15.260,33.427,0.635,1.015
20050416,011831,123344,32.964005,-117.449938,15.250,33.421,0.591,0.931
20050416,011901,123374,32.962573,-117.450288,15.239,33.418,0.648,1.034
20050416,011931,123404,32.961070,-117.450493,15.211,33.425,0.680,1.093
20050416,012001,123434,32.959560,-117.450573,15.193,33.421,0.712,1.152
20050416,012031,123464,32.957981,-117.450383,15.170,33.426,0.699,1.123
20050416,012101,123494,32.956475,-117.450095,15.181,33.404,0.731,1.179
20050416,012131,123525,32.955018,-117.449760,15.243,33.336,0.725,1.067
20050416,012201,123554,32.953508,-117.449350,15.297,33.285,0.776,1.162
20050416,012231,123584,32.951938,-117.448946,15.396,33.206,0.738,1.108
20050416,012301,123614,32.950465,-117.448566,15.451,33.174,0.815,1.262
20050416,012331,123644,32.948896,-117.448168,15.514,33.148,0.776,1.201
20050416,012401,123674,32.947418,-117.447798,15.551,33.155,0.880,1.375
20050416,012431,123704,32.945906,-117.447423,15.607,33.150,0.900,1.407
20050416,012501,123734,32.944333,-117.447025,15.652,33.155,0.835,1.253
20050416,012531,123764,32.942863,-117.446615,15.663,33.186,0.731,1.049
20050416,012602,123795,32.941283,-117.446198,15.688,33.202,0.757,1.088
20050416,012631,123824,32.939805,-117.445798,15.709,33.217,0.725,1.043
20050416,012701,123854,32.938220,-117.445371,15.704,33.252,0.661,0.923
20050416,012732,123885,32.936685,-117.444956,15.677,33.304,0.654,0.915
20050416,012801,123914,32.935206,-117.444581,15.664,33.337,0.661,0.921
20050416,012831,123944,32.933611,-117.444145,15.657,33.356,0.725,1.060
20050416,012901,123974,32.932133,-117.443758,15.637,33.377,0.622,0.870
20050416,012932,124005,32.930606,-117.443315,15.673,33.348,0.680,0.973
20050416,013001,124034,32.929018,-117.442908,15.703,33.325,0.661,0.943
20050416,013031,124064,32.927548,-117.442506,15.774,33.268,0.648,0.929
20050416,013101,124094,32.926030,-117.441886,15.842,33.225,0.661,0.944
20050416,013131,124124,32.925088,-117.440630,15.875,33.218,0.603,0.875
20050416,013201,124154,32.924516,-117.438898,15.970,33.168,0.597,0.879
20050416,013231,124184,32.923931,-117.437178,16.032,33.154,0.616,0.910
20050416,013301,124214,32.923338,-117.435445,16.082,33.154,0.661,0.987
20050416,013331,124244,32.922768,-117.433760,16.031,33.243,0.635,0.940
20050416,013401,124274,32.922201,-117.432015,15.922,33.373,0.622,0.917
20050416,013431,124304,32.921631,-117.430276,15.906,33.405,0.603,0.881
20050416,013501,124334,32.921050,-117.428543,15.861,33.439,0.622,0.913
20050416,013531,124364,32.920470,-117.426810,15.932,33.371,0.603,0.878
20050416,013601,124394,32.920006,-117.425036,15.901,33.383,0.603,0.874
20050416,013631,124424,32.919531,-117.423183,15.853,33.416,0.571,0.819
20050416,013701,124454,32.919088,-117.421383,15.765,33.484,0.546,0.775
20050416,013731,124484,32.918646,-117.419561,15.668,33.549,0.565,0.804
20050416,013802,124515,32.918235,-117.417758,15.569,33.607,0.565,0.802
20050416,013831,124544,32.917775,-117.416042,15.442,33.676,0.578,0.821
20050416,013901,124574,32.917278,-117.414232,15.406,33.658,0.610,0.872
20050416,013931,124604,32.916820,-117.412455,15.440,33.580,0.584,0.828
20050416,014002,124635,32.916391,-117.410603,15.509,33.476,0.667,0.966
20050416,014031,124664,32.915990,-117.408803,15.606,33.358,0.603,0.854
20050416,014101,124694,32.915593,-117.407007,15.735,33.237,0.616,0.874
20050416,014132,124725,32.915183,-117.405212,15.928,33.088,0.642,0.914
20050416,014201,124754,32.914816,-117.403502,16.024,33.049,0.622,0.879
20050416,014231,124784,32.914413,-117.401733,16.034,33.100,0.674,0.963
20050416,014302,124815,32.914088,-117.400370,16.047,33.150,0.654,0.928
20050416,014332,124845,32.913801,-117.399187,16.060,33.188,0.629,0.883
20050416,014401,124875,32.913528,-117.398107,16.084,33.212,0.674,0.955
20050416,014431,124904,32.913248,-117.397027,16.047,33.279,0.674,0.953
20050416,014501,124934,32.912980,-117.395973,15.962,33.377,0.680,0.962
20050416,014531,124964,32.912745,-117.395182,15.826,33.504,0.616,0.852
20050416,014602,124995,32.912471,-117.394627,15.597,33.690,0.622,0.860
20050416,014631,125024,32.912186,-117.394277,15.525,33.720,0.680,0.937
20050416,014701,125054,32.911905,-117.394093,15.333,33.827,0.712,0.973
20050416,014731,125084,32.911628,-117.393993,15.205,33.862,0.686,0.946
20050416,014801,125114,32.911380,-117.393973,15.161,33.821,0.693,0.969
20050416,014831,125144,32.911131,-117.394038,15.102,33.785,0.738,1.039
20050416,014901,125174,32.910925,-117.394127,15.087,33.704,0.751,1.059
20050416,014932,125205,32.910781,-117.394198,15.126,33.568,0.674,0.925
20050416,015002,125235,32.910660,-117.394253,15.167,33.446,0.674,0.922
20050416,015031,125264,32.910558,-117.394325,15.216,33.336,0.661,0.895
20050416,015101,125294,32.910473,-117.394395,15.313,33.210,0.591,0.784
20050416,015131,125324,32.910383,-117.394468,15.377,33.112,0.622,0.830
20050416,015201,125354,32.910308,-117.394550,15.590,32.927,0.629,0.841
20050416,015231,125384,32.910233,-117.394633,15.716,32.859,0.584,0.766
20050416,015302,125415,32.910148,-117.394730,15.790,32.865,0.597,0.782
20050416,015332,125445,32.910066,-117.394830,15.830,32.907,0.629,0.828
20050416,015401,125474,32.909973,-117.394932,15.835,32.975,0.674,0.898
20050416,015432,125505,32.909863,-117.395033,15.815,33.049,0.610,0.795
20050416,015501,125534,32.909766,-117.395153,15.750,33.145,0.616,0.802
20050416,015531,125564,32.909676,-117.395248,15.700,33.219,0.629,0.822
20050416,015601,125594,32.909615,-117.395350,15.612,33.307,0.610,0.788
20050416,015632,125625,32.909536,-117.395457,15.591,33.326,0.718,0.958
20050416,015702,125655,32.909440,-117.395568,15.611,33.305,0.680,0.894
20050416,015732,125685,32.909365,-117.395678,15.681,33.244,0.610,0.783
20050416,015802,125715,32.909280,-117.395783,15.795,33.151,0.635,0.818
20050416,015832,125745,32.909180,-117.395892,15.817,33.145,0.680,0.885
20050416,015902,125775,32.909091,-117.396000,15.836,33.149,0.654,0.843
20050416,015931,125804,32.909006,-117.396103,15.842,33.167,0.616,0.785
20050416,020002,125835,32.908933,-117.396208,15.842,33.192,0.603,0.763
20050416,020032,125865,32.908840,-117.396310,15.834,33.197,0.661,0.847
20050416,020102,125895,32.908771,-117.396425,15.808,33.230,0.661,0.846
20050416,020132,125925,32.908701,-117.396518,15.801,33.274,0.661,0.844
20050416,020203,125956,32.908605,-117.396623,15.810,33.275,0.680,0.873
20050416,020233,125986,32.908530,-117.396725,15.831,33.263,0.597,0.745
20050416,020302,126015,32.908455,-117.396817,15.857,33.249,0.616,0.773
20050416,020332,126045,32.908366,-117.396897,15.866,33.252,0.603,0.753
20050416,020402,126075,32.908270,-117.396958,15.854,33.275,0.648,0.817
20050416,020433,126106,32.908173,-117.397015,15.783,33.346,0.635,0.797
20050416,020503,126136,32.908098,-117.397060,15.756,33.370,0.610,0.758
20050416,020532,126165,32.908013,-117.397107,15.748,33.343,0.635,0.794
20050416,020603,126196,32.907918,-117.397163,15.778,33.311,0.597,0.737
20050416,020632,126225,32.907838,-117.397230,15.820,33.269,0.616,0.764
20050416,020702,126255,32.907751,-117.397310,15.835,33.280,0.571,0.699
20050416,020732,126285,32.907676,-117.397390,15.868,33.254,0.603,0.743
20050416,020802,126315,32.907608,-117.397475,15.885,33.241,0.591,0.724
20050416,020833,126346,32.907530,-117.397567,15.896,33.239,0.603,0.742
20050416,020902,126375,32.907456,-117.397657,15.899,33.248,0.578,0.705
20050416,020932,126405,32.907368,-117.397745,15.917,33.245,0.565,0.686
20050416,021002,126435,32.907271,-117.397835,15.917,33.258,0.661,0.823
20050416,021032,126465,32.907181,-117.397925,15.870,33.314,0.635,0.785
20050416,021102,126495,32.907088,-117.398005,15.856,33.336,0.667,0.831
20050416,021132,126525,32.907018,-117.398085,15.806,33.382,0.667,0.831
20050416,021202,126555,32.906928,-117.398162,15.811,33.373,0.616,0.755
20050416,021232,126585,32.906843,-117.398228,15.806,33.371,0.667,0.830
20050416,021302,126615,32.906761,-117.398255,15.813,33.355,0.622,0.764
20050416,021333,126646,32.906700,-117.398250,15.845,33.322,0.610,0.745
20050416,021402,126675,32.906625,-117.398225,15.861,33.305,0.616,0.753
20050416,021432,126705,32.906550,-117.398213,15.879,33.294,0.591,0.717
20050416,021502,126735,32.906500,-117.398197,15.886,33.296,0.610,0.743
20050416,021532,126765,32.906426,-117.398208,15.884,33.305,0.603,0.734
20050416,021602,126795,32.906356,-117.398213,15.883,33.312,0.571,0.688
20050416,021632,126825,32.906290,-117.398227,15.887,33.313,0.578,0.697
20050416,021702,126855,32.906205,-117.398252,15.894,33.310,0.591,0.715
20050416,021733,126886,32.906106,-117.398292,15.903,33.305,0.565,0.678
20050416,021802,126915,32.906011,-117.398328,15.913,33.302,0.603,0.732
20050416,021832,126945,32.905925,-117.398365,15.915,33.309,0.578,0.696
20050416,021902,126975,32.905831,-117.398413,15.907,33.323,0.584,0.705
20050416,021933,127006,32.905745,-117.398472,15.904,33.333,0.629,0.768
20050416,022002,127035,32.905651,-117.398527,15.904,33.336,0.591,0.713
20050416,022032,127065,32.905575,-117.398577,15.899,33.345,0.591,0.713
20050416,022103,127096,32.905488,-117.398628,15.895,33.347,0.610,0.739
20050416,022132,127125,32.905406,-117.398682,15.889,33.324,0.591,0.712
20050416,022202,127155,32.905336,-117.398735,15.883,33.361,0.616,0.748
20050416,022233,127186,32.905243,-117.398797,15.882,33.360,0.571,0.685
20050416,022302,127215,32.905155,-117.398870,15.889,33.323,0.565,0.676
20050416,022332,127245,32.905058,-117.398937,15.902,33.343,0.584,0.703
20050416,022402,127275,32.904978,-117.399007,15.921,33.328,0.603,0.729
20050416,022433,127306,32.904880,-117.399082,15.938,33.317,0.610,0.738
20050416,022502,127335,32.904793,-117.399145,15.948,33.314,0.642,0.784
20050416,022532,127365,32.904685,-117.399210,15.953,33.314,0.616,0.747
20050416,022603,127396,32.904600,-117.399247,15.963,33.310,0.591,0.711
20050416,022632,127425,32.904523,-117.399272,15.969,33.315,0.661,0.811
20050416,022703,127456,32.904431,-117.399313,15.982,33.316,0.591,0.711
20050416,022732,127485,32.904341,-117.399360,15.997,33.310,0.591,0.710
20050416,022802,127515,32.904246,-117.399410,16.020,33.297,0.622,0.755
20050416,022832,127545,32.904153,-117.399468,16.043,33.288,0.642,0.783
20050416,022902,127575,32.904065,-117.399528,16.052,33.293,0.603,0.728
20050416,022932,127605,32.903970,-117.399570,16.077,33.282,0.591,0.710
20050416,023003,127636,32.903878,-117.399578,16.080,33.292,0.597,0.719
20050416,023032,127665,32.903791,-117.399563,16.085,33.301,0.616,0.746
20050416,023103,127696,32.903706,-117.399520,16.079,33.320,0.667,0.820
20050416,023132,127725,32.903615,-117.399467,16.065,33.342,0.667,0.820
20050416,023202,127755,32.903543,-117.399383,16.054,33.356,0.642,0.783
20050416,023232,127785,32.903480,-117.399320,16.053,33.362,0.667,0.820
20050416,023302,127815,32.903391,-117.399273,16.055,33.360,0.616,0.746
20050416,023333,127846,32.903288,-117.399237,16.059,33.355,0.642,0.782
20050416,023402,127875,32.903221,-117.399225,16.066,33.350,0.616,0.745
20050416,023433,127906,32.903125,-117.399223,16.072,33.345,0.610,0.736
20050416,023502,127935,32.903023,-117.399238,16.069,33.350,0.603,0.727
20050416,023532,127965,32.902923,-117.399267,16.019,33.393,0.616,0.745
20050416,023602,127995,32.902836,-117.399302,15.858,33.524,0.661,0.810
20050416,023633,128026,32.902750,-117.399345,15.712,33.635,0.686,0.848
20050416,023702,128055,32.902671,-117.399392,15.664,33.646,0.642,0.782
20050416,023732,128085,32.902595,-117.399452,15.689,33.584,0.610,0.736
20050416,023802,128115,32.902516,-117.399517,15.710,33.522,0.591,0.709
20050416,023832,128145,32.902426,-117.399585,15.828,33.384,0.610,0.736
20050416,023902,128175,32.902331,-117.399653,15.956,33.251,0.667,0.819
20050416,023932,128205,32.902240,-117.399712,16.006,33.207,0.610,0.736
20050416,024002,128235,32.902146,-117.399777,16.031,33.204,0.661,0.810
20050416,024032,128265,32.902045,-117.399833,16.068,33.199,0.622,0.754
20050416,024102,128295,32.901950,-117.399860,16.117,33.191,0.635,0.773
20050416,024133,128326,32.901861,-117.399885,16.181,33.174,0.610,0.736
20050416,024202,128355,32.901785,-117.399925,16.223,33.176,0.622,0.754
20050416,024233,128386,32.901695,-117.399968,16.277,33.171,0.654,0.800
20050416,024302,128415,32.901615,-117.400018,16.296,33.195,0.603,0.727
20050416,024332,128445,32.901536,-117.400062,16.304,33.230,0.571,0.682
20050416,024402,128475,32.901438,-117.400122,16.313,33.254,0.578,0.691
20050416,024433,128506,32.901321,-117.400185,16.321,33.275,0.591,0.709
20050416,024502,128535,32.901216,-117.400235,16.331,33.288,0.591,0.709
20050416,024533,128566,32.901118,-117.400303,16.331,33.312,0.610,0.736
20050416,024602,128595,32.901035,-117.400363,16.324,33.327,0.578,0.691
20050416,024632,128625,32.900935,-117.400442,16.310,33.348,0.584,0.700